Wild Boar Gully, Santa Catalina Island Weather observations

Data are for 10 minute period ending at time listed.
 Day   Time   Solar   Ave.   Ave.  Ave.  Vector    Max.   Stn.    Total
  of    of     Rad.   Air    Rel.  Wind   Wind     Wind   Baro.  Precip.
Year   Day            Temp.  Hum.  Speed  Dir.     Gust   Pres.         
2015   (PST)   W/m2    F      %     mph   deg.      mph    mb.     in.  
------------------------------------------------------------------------
 244   11:20  115.0    66   89.1     5    232.2     9.0    999.0   0.00  
 244   11:30  159.0    65   91.2     6    239.4     9.0    999.0   0.00  
 244   11:40  172.0    65   91.1     6    237.4     8.4    999.0   0.00  
 244   11:50  146.0    65   91.0     6    235.8     8.4    999.0   0.00  
 244   12:00  144.0    64   91.4     6    238.7     9.0    999.0   0.00  
 244   12:10  195.0    65   91.2     6    240.7     9.6    999.0   0.00  
 244   12:20  214.0    65   90.7     6    238.4     7.8    999.0   0.00  
 244   12:30  227.0    65   90.6     6    239.7     9.6    999.0   0.00  
 244   12:40  251.0    65   90.3     6    237.7     9.6    999.0   0.00  
 244   12:50  234.0    66   89.4     5    234.9     7.8    999.0   0.00  
 244   13:00  241.0    65   89.4     6    238.8     9.6    999.0   0.00  
 244   13:10  290.0    66   89.3     7    238.3     9.6    999.0   0.00  
 244   13:20  238.0    65   90.0     7    235.7    10.2    999.0   0.00  
 244   13:30  154.0    65   91.0     7    235.8    10.8    999.0   0.00  
 244   13:40   76.0    64   91.7     6    234.2    10.8    999.0   0.00  
 244   13:50   66.0    64   92.0     7    239.5     9.6    999.0   0.00  
 244   14:00  104.0    64   92.4     7    241.4    10.2    999.0   0.00  
 244   14:10  177.0    64   91.7     8    242.5    11.3    999.0   0.00  
 244   14:20  198.0    64   90.7     8    241.0    11.9    999.0   0.00  
 244   14:30  128.0    64   90.8     7    242.3     9.6    999.0   0.00  
 244   14:40  146.0    64   91.3     8    239.1    11.9    999.0   0.00  
 244   14:50  187.0    65   90.3     8    236.6    11.9    999.0   0.00  
 244   15:00  150.0    65   89.9     8    237.4    11.3    999.0   0.00  
 244   15:10  153.0    65   90.2     8    242.2    11.3    999.0   0.00  
 244   15:20  206.0    66   88.7     7    246.9    11.3    999.0   0.00  
 244   15:30  232.0    65   88.5     8    238.3    13.1    999.0   0.00  
 244   15:40  172.0    66   88.0     8    234.4    12.5    999.0   0.00  
 244   15:50  142.0    65   88.8    10    240.9    14.3    999.0   0.00  
 244   16:00  121.0    64   89.8     9    243.0    13.1    999.0   0.00  
 244   16:10  193.0    65   87.9     7    247.2    13.1    999.0   0.00  
 244   16:20  166.0    65   87.6     8    239.1    12.5    999.0   0.00  
 244   16:30  169.0    65   88.2     8    235.9    12.5    999.0   0.00  
 244   16:40  109.0    65   87.2     6    234.1     9.0    999.0   0.00  
 244   16:50   54.0    65   87.8     6    244.1     9.6    999.0   0.00  
 244   17:00   37.0    65   88.4     6    240.5     9.6    999.0   0.00  
 244   17:10   32.0    64   88.3     6    245.5     9.0    999.0   0.00  
 244   17:20   29.0    64   90.7     7    244.2    10.2    999.0   0.00  
 244   17:30   35.0    64   91.7     6    244.1     8.4    999.0   0.00  
 244   17:40   32.0    64   91.8     6    246.8     9.6    999.0   0.00  
 244   17:50   18.0    64   91.8     7    242.7     9.6    999.0   0.00  
 244   18:00    9.0    64   92.0     6    242.2     9.6    999.0   0.00  
 244   18:10    6.0    64   91.5     5    246.8     7.8    999.0   0.00  
 244   18:20    3.0    64   91.7     6    245.4     9.6    999.0   0.00  
 244   18:30    0.0    63   92.0     5    263.5     8.4    999.0   0.00  
 244   18:40    0.0    63   91.9     5    246.2     9.6    999.0   0.00  
 244   18:50    0.0    63   91.6     6    244.0     7.8    999.0   0.00  
 244   19:00    0.0    63   91.5     5    251.5     7.8    999.0   0.00  
 244   19:10    0.0    64   91.6     6    244.5     9.0    999.0   0.00  
 244   19:20    0.0    63   91.8     5    250.6     7.8    999.0   0.00  
 244   19:30    0.0    64   91.7     4    267.5     6.0    999.0   0.00  
 244   19:40    0.0    64   91.5     5    251.4     9.0    999.0   0.00  
 244   19:50    0.0    64   91.5     5    261.6     7.8    999.0   0.00  
 244   20:00    0.0    64   91.4     6    276.4     7.8    999.0   0.00  
 244   20:10    0.0    64   91.3     5    272.9     8.4    999.0   0.00  
 244   20:20    0.0    64   91.0     4    259.2     7.2    999.0   0.00  
 244   20:30    0.0    64   90.8     4    266.6     6.6    999.0   0.00  
 244   20:40    0.0    64   90.8     6    277.4     6.6    999.0   0.00  
 244   20:50    0.0    64   90.6     6    272.2     7.2    999.0   0.00  
 244   21:00    0.0    64   90.4     5    268.6     6.6    999.0   0.00  
 244   21:10    0.0    64   90.2     5    269.3     6.6    999.0   0.00  
 244   21:20    0.0    64   90.0     5    267.4     7.2    999.0   0.00  
 244   21:30    0.0    64   89.5     4    273.1     6.6    999.0   0.00  
 244   21:40    0.0    64   89.1     4    276.7     6.0    999.0   0.00  
 244   21:50    0.0    64   89.0     4    271.2     6.0    999.0   0.00  
 244   22:00    0.0    64   89.2     6    275.2     7.8    999.0   0.00  
 244   22:10    0.0    64   89.4     5    286.8     6.6    999.0   0.00  
 244   22:20    0.0    64   89.4     4    282.1     5.4    999.0   0.00  
 244   22:30    0.0    64   89.6     4    277.2     6.0    999.0   0.00  
 244   22:40    0.0    64   89.6     4    280.2     7.2    999.0   0.00  
 244   22:50    0.0    64   89.5     5    288.4     6.6    999.0   0.00  
 244   23:00    0.0    64   89.4     5    294.6     6.6    999.0   0.00  
 244   23:10    0.0    64   89.1     5    294.7     7.2    999.0   0.00  
 244   23:20    0.0    64   89.0     5    309.3     6.6    999.0   0.00  
 244   23:30    0.0    64   88.7     4    303.4     6.0    999.0   0.00  
 244   23:40    0.0    64   88.8     4    301.1     4.8    999.0   0.00  
 244   23:50    0.0    64   88.7     3    356.0     4.2    999.0   0.00  
 245    0:00    0.0    64   88.9     2      6.5     4.2    999.0   0.00  
 245    0:10    0.0    63   89.1     2    358.2     4.2    999.0   0.00  
 245    0:20    0.0    63   89.1     1    242.0     2.4    999.0   0.00  
 245    0:30    0.0    63   89.2     2    306.6     4.8    999.0   0.00  
 245    0:40    0.0    63   89.1     2     25.9     3.0    999.0   0.00  
 245    0:50    0.0    63   89.1     2     46.7     4.2    999.0   0.00  
 245    1:00    0.0    63   88.9     4     45.1     5.4    999.0   0.00  
 245    1:10    0.0    63   89.3     2     99.8     3.6    999.0   0.00  
 245    1:20    0.0    63   89.3     1    114.2     2.4    999.0   0.00  
 245    1:30    0.0    63   89.3     1    255.2     2.4    999.0   0.00  
 245    1:40    0.0    63   89.5     1    265.4     1.8    999.0   0.00  
 245    1:50    0.0    63   89.4     1    244.5     1.8    999.0   0.00  
 245    2:00    0.0    63   89.9     2    249.8     3.6    999.0   0.00  
 245    2:10    0.0    63   90.4     1    285.0     2.4    999.0   0.00  
 245    2:20    0.0    63   90.8     2    267.9     4.2    999.0   0.00  
 245    2:30    0.0    63   91.7     4    274.7     6.0    999.0   0.00  
 245    2:40    0.0    63   92.3     4    267.7     5.4    999.0   0.00  
 245    2:50    0.0    63   92.5     4    249.9     5.4    999.0   0.00  
 245    3:00    0.0    63   92.5     4    238.8     5.4    999.0   0.00  
 245    3:10    0.0    63   92.5     3    256.1     5.4    999.0   0.00  
 245    3:20    0.0    63   92.4     3    272.5     5.4    999.0   0.00  
 245    3:30    0.0    63   92.4     4    260.6     5.4    999.0   0.00  
 245    3:40    0.0    63   92.3     4    257.2     5.4    999.0   0.00  
 245    3:50    0.0    63   92.2     4    279.8     5.4    999.0   0.00  
 245    4:00    0.0    63   92.3     4    274.4     5.4    999.0   0.00  
 245    4:10    0.0    63   92.4     3    287.6     4.2    999.0   0.00  
 245    4:20    0.0    63   92.3     4    274.8     5.4    999.0   0.00  
 245    4:30    0.0    63   92.2     4    280.0     5.4    999.0   0.00  
 245    4:40    0.0    63   92.0     4    282.7     4.8    999.0   0.00  
 245    4:50    0.0    63   91.7     3    307.7     4.8    999.0   0.00  
 245    5:00    0.0    63   91.5     2    308.8     3.0    999.0   0.00  
 245    5:10    0.0    63   91.0     3    248.7     4.8    999.0   0.00  
 245    5:20    0.0    63   91.0     4    279.4     4.8    999.0   0.00  
 245    5:30    0.0    63   90.9     3    313.1     4.2    999.0   0.00  
 245    5:40    1.0    63   90.3     3    308.2     3.6    999.0   0.00  
 245    5:50    5.0    63   89.6     2    312.5     3.6    999.0   0.00  
 245    6:00    9.0    63   89.1     2    308.3     3.0    999.0   0.00  
 245    6:10   12.0    64   88.7     1    271.3     2.4    999.0   0.00  
 245    6:20   13.0    64   88.2     2    263.3     2.4    999.0   0.00  
 245    6:30   20.0    64   87.5     3    257.5     4.2    999.0   0.00  
 245    6:40   36.0    64   87.2     2    275.1     3.6    999.0   0.00  
 245    6:50   50.0    64   86.2     1    265.1     3.0    999.0   0.00  
 245    7:00   78.0    65   84.1     1    201.7     1.2    999.0   0.00  
 245    7:10  106.0    66   82.6     2    204.0     3.6    999.0   0.00  
 245    7:20  105.0    66   82.5     3    236.3     5.4    999.0   0.00  
 245    7:30  108.0    65   83.3     4    216.5     6.6    999.0   0.00  
 245    7:40  113.0    65   83.1     3    233.1     5.4    999.0   0.00  
 245    7:50  123.0    65   83.4     4    242.1     5.4    999.0   0.00  
 245    8:00  125.0    65   82.7     4    235.9     5.4    999.0   0.00  
 245    8:10  121.0    66   82.2     4    241.6     6.0    999.0   0.00  
 245    8:20  121.0    66   81.2     4    232.6     5.4    999.0   0.00  
 245    8:30  128.0    66   81.1     4    237.4     5.4    999.0   0.00  
 245    8:40  173.0    66   80.8     4    240.2     6.0    999.0   0.00  
 245    8:50  198.0    66   78.9     4    187.0     6.6    999.0   0.00  
 245    9:00  536.0    68   76.1     4    178.9     7.2    999.0   0.00  
 245    9:10  511.0    69   73.8     6    220.2     9.6    999.0   0.00  
 245    9:20  414.0    67   76.8     7    230.8     9.6    999.0   0.00  
 245    9:30  460.0    68   76.1     6    237.4     8.4    999.0   0.00  
 245    9:40  671.0    68   74.8     7    230.6     9.6    999.0   0.00  
 245    9:50  482.0    67   76.1     6    238.0     9.0    999.0   0.00  
 245   10:00  738.0    68   74.6     7    236.7    10.2    999.0   0.00  
 245   10:10  734.0    68   74.3     7    240.0     9.6    999.0   0.00  
 245   10:20  702.0    69   73.0     7    228.9     9.0    999.0   0.00  
 245   10:30  708.0    68   73.3     8    233.6    10.8    999.0   0.00  
 245   10:40  571.0    68   73.5     7    233.3    11.9    999.0   0.00  
 245   10:50  559.0    68   73.8     7    242.5    10.2    999.0   0.00  
 245   11:00  638.0    67   74.4     7    236.4    10.8    999.0   0.00  
 245   11:10  784.0    68   73.2     7    238.7    10.8    999.0   0.00  

Return to Wild Boar Gully graphs page.


Western Regional Climate Center,wrcc@dri.edu